CUBESAT XI-V (28895 NORAD) Tracking and Keplerian Element Data

This shows tracking and keplerian element data for the satellite.

Feedback or suggestion? Click here.




ElementValue
Catalog28895
NameCUBESAT XI-V
Epoch Orbit91022
Epoch Day324.29882303
Epoch Year2022
RAAN93.498
Inclination98.1278
Eccentricity0.0016689
Argument of Perigee14.9168
Mean Anonmoly345.2524
Mean Motion14.64670325
Decay Rate9.35E-06
L11 28895U 05043F 22324.29882303 .00000935 00000+0 18447-3 0 9995
L22 28895 98.1278 93.4980 0016689 14.9168 345.2524 14.64670325910228



Live tracking and technical data element details for CUBESAT XI-V (NORAD 28895). CUBESAT XI-V can be tracked NOW for your location showing map with azimuth and elevation plus other details from your city location.







IsCatalogInMostPopularTable: catalog: 28895, numindb: 459
Update: records affected: 1



GetName: 28895 CUBESAT XI-V

Hit Count: updated at: Mon, 28 Nov 2022 03:53:26 GMT